Погода в Блшанах

Чехия     50°13′01″N   13°28′14″E
темп.,
°C
ветер,
м/с
пор.,
м/с
влажн.,
%
обл.,
%
осадки,
мм/ч
давл.,
гПа
погр.,
м
16 апреля, пт
пт1623:00+1сз488390 0.1 1025543
02:000сз4783100 0.1 1024486
05:00−1зсз358384 0.0 1024152
08:00+1сз4675100 0.0 1024554
11:00+3ссз4576100 0.1 1024811
14:00+3с4590100 0.2 1024547
17:00+6с4569100 0.1 10231063
20:00+4сз117976 0.1 102311
17 апреля, сб
сб1723:00+2зюз2287100 0.0 102319
02:000зсз228884 0.0 102314
05:00+1сз2384100 0.0 102266
08:00+2сз3692100 0.1 1022390
11:00+3ссз3494100 0.5 1022412
14:00+3с3395100 0.6 1022382
17:00+3с3494100 0.1 1021451
20:00+3ссз2394100 0.1 1022140
18 апреля, вс
вс1823:00+3зсз2397100 0.5 1022159
02:00+4сз2497100 0.9 1021144
05:00+4ссз1396100 1.0 1020114
08:00+4сз1393100 1.1 1020152
11:00+8с357998 0.1 1020915
14:00+8св238298 0.6 1019653
17:00+9с347486 0.6 1018814
20:00+7ссз239181 1.0 101968
19 апреля, пн
пн1923:00+6зсз2392100 0.1 101967
02:00+5ссз2293100 0.1 101938
05:00+4ссз1193100 0.0 101812
08:00+6с2390100 0.0 1018298
11:00+9с3371100 0.0 1018766
14:00+12св2359100 0.2 10161275
17:00+12св5561100 0.3 10151294
20:00+8с227993 0.5 101620
20 апреля, вт
вт2023:00+7сз1188100 0.1 101617
02:00+7з128899 0.6 101520
05:00+7зсз118595 0.1 101516
08:00+9ссз238096 0.3 1015146
11:00+11в226183 0.3 10141023
14:00+13св215460 0.6 10131400
17:00+12св436179 0.4 1012825
20:00+9ссв117275 0.4 101225